Regional Weather Roundup
Issued by NWS Mobile, AL

Home | Current Version | Previous Version | Text Only | Print | Product List | Glossary On
Versions: 1 2 3 4 5 6 7 8 9 10 11 12 13 14 15 16 17 18 19 20 21 22 23 24 25 26 27 28 29 30 31 32 33 34 35 36 37 38 39 40 41 42 43 44 45 46 47 48 49 50
000
ASUS44 KMOB 270216
RWRMOB
REGIONAL WEATHER ROUNDUP
NATIONAL WEATHER SERVICE MOBILE AL
900 PM CDT THU MAR 26 2015

ALZ061>064-270300-
COASTAL ALABAMA


CITY           SKY/WX    TMP DP  RH WIND       PRES   REMARKS
MOBILE REG APT CLOUDY    64  63  96 SW7       29.86R
BROOKLEY FIELD CLOUDY    65  63  93 SW5       29.86F
GULF SHORES    CLOUDY    65  65  97 CALM      29.87R

$$

ALZ051>060-270300-
INTERIOR SOUTHWEST AND SOUTH CENTRAL ALABAMA


CITY           SKY/WX    TMP DP  RH WIND       PRES   REMARKS
ANDALUSIA/OPP  CLOUDY    69  63  81 W5        29.85F
EVERGREEN      CLOUDY    65  63  93 S12       29.83F
FLORALA        CLOUDY    65  62  90 SW6       29.88S
GREENVILLE     MOCLDY    66  63  90 SW7       29.82F

$$

FLZ001>006-270300-
WESTERN FLORIDA PANHANDLE


CITY           SKY/WX    TMP DP  RH WIND       PRES   REMARKS
CRESTVIEW      CLOUDY    65  63  93 S3        29.88F
DESTIN         CLOUDY    69  64  84 CALM      29.87F
DUKE FIELD     CLOUDY    65  63  93 S6        29.86F
MARY ESTHER    PTCLDY    68  60  75 S3        29.85F
MILTON         CLOUDY    67  62  84 CALM      29.87R
PENSACOLA      CLOUDY    67  63  87 SW3       29.86R
NAS PENSACOLA  CLOUDY    68  64  87 W3        29.87R
VALPARAISO     CLOUDY    68  64  87 S3        29.86F

$$

...MARINE OBSERVATIONS...

STATION/POSITION TIME  SKY/WX   TEMP    WIND        PRES    VSBY
                                AIR SEA DIR/SP/G
                 (UTC)          (F)     (DEG/KT/KT) (MB)    (MI)
PASCAGOULA       0100            67     230/  5/  7 1010.6F
PETIT BOIS ISL   0100            68     260/  7/  8 1011.2F
E DAUPHIN ISLAND 0200            67     250/  3/  4 1010.5F
MIDDLE BAY LIGHT 0100                   240/  8     1010.5F
USCG MOBILE BAY  0100            67 68   CALM  /  3 1009.9F
STATE DOCKS      0100            67 64              1010.7S
MEAHER PARK      0200            67     170/  9     1010.8F
FORT MORGAN      0100            68     280/ 10/ 11 1010.3F
12 S ORANGE BCH  0150            69 68  210/ 10/ 12 1010.5R
WVE H/P(F/S)=  3/ 6

PENSACOLA BAY    0100            71 71  210/  4/  7 1011.2F
64 S DAUPHIN ISL 0150            70 73  170/ 21/ 25 1009.4R
WVE H/P(F/S)=  3/ 6

115 SE PENSACOLA 0150            70 75  250/ 14/ 16 1012.9F
WVE H/P(F/S)=  3/ 5

MID GULF/42001   0150            71 79   30/ 21/ 27 1013.6R
WVE H/P(F/S)=  6/ 7

EAST GULF/42003  0150            74 76   70/  4/  4 1013.1R
WVE H/P(F/S)=  4/ 6


$$

...NEARBY LOCATIONS

CITY           SKY/WX    TMP DP  RH WIND       PRES   REMARKS
GULFPORT       CLOUDY    64  60  87 W6        29.86R
BILOXI         CLOUDY    66  62  87 VRB3      29.85S
PASCAGOULA     CLOUDY    65  63  93 SW3       29.85S
HATTIESBURG    CLOUDY    65  63  93 CALM      29.87R
LAUREL         MOCLDY    64  59  82 NW5       29.87R
MERIDIAN       CLOUDY    60  54  80 N18       29.89R
MERIDIAN NAS   LGT RAIN  56  51  81 N14G23    29.89R
MONTGOMERY     CLOUDY    68  64  87 SW6       29.82R
MAXWELL AFB    LGT RAIN  66  64  94 SW15G24   29.82S FOG
TROY           CLOUDY    68  63  84 SW9G18    29.84S
FORT RUCKER    CLOUDY    66  62  87 SW9       29.85R
DALEVILLE      CLOUDY    66  60  81 SW9       29.86S
DOTHAN         CLOUDY    65  62  90 SW8       29.90R

$$

...OTHER SURROUNDING LOCATIONS...

CITY           SKY/WX    TMP DP  RH WIND       PRES   REMARKS
BIRMINGHAM     CLOUDY    58  50  75 N16       29.87R
TUSCALOOSA     CLOUDY    59  50  72 N17G26    29.87R
COLUMBUS GA    CLOUDY    66  61  84 SW9       29.84R
PANAMA CITY    NOT AVBL
TALLAHASSEE    CLOUDY    64  63  96 SW3       29.88R
BATON ROUGE    CLOUDY    59  57  93 NW10      29.92R
NEW ORLEANS    CLOUDY    65  60  84 CALM      29.88S
SLIDELL        MOCLDY    61  61 100 S6        29.87S
JACKSON        CLOUDY    53  49  86 N13       29.97R
MCCOMB         CLOUDY    56  53  90 N17G29    29.92R

$$

...SURROUNDING MARINE OBSERVATIONS...

STATION/POSITION TIME  SKY/WX   TEMP    WIND        PRES    VSBY
                                AIR SEA DIR/SP/G
                 (UTC)          (F)     (DEG/KT/KT) (MB)    (MI)
WAVELAND         0100            64 71  240/  3/  4 1011.5R
PASCAGOULA RGN A 0100            67     220/  7/ 10 1010.1F
PASCAGOULA PORT  0100               71                N/A
GRAND ISLE       0100            67 71   CALM  /  3 1011.3R
SOUTHWEST PASS   0200            66     200/  6/  7 1010.7R
PILOT STATION E  0100            63 51  160/  7/ 10 1010.8R
SHELL BEACH      0100            65 71  260/  5/  5 1011.7R
PANAMA CITY      0100            67 70  200/  8/ 12 1010.9R
APALACHICOLA     0100            67 69  220/ 13/ 18 1010.0F
TYNDALL TOWER C  0200            67     200/ 23/ 25 1010.3F
S APLCHCLA/42036 0150            68 71  280/  8/ 14 1013.1R
WVE H/P(F/S)=  2/ 5


$$




USA.gov is the U.S. government's official web portal to all federal, state and local government web resources and services.